Flag for Germany Weather past 2 weeks in Hamburg, Hamburg, Germany

Now
57 °F

Partly sunny.


Feels Like: 54 °F
Forecast: 50 / 55 °F
Wind: 13 mph from South

Location: Hamburg-Fuhlsbuettel

Current Time: Oct 24, 2014 at 2:41:42 PM

Latest Report: Oct 24, 2014 at 1:50 PM


Visibility: N/A

Pressure: 30.09 "Hg

Humidity: 72%

Dew point: 48 °F

Location of HamburgLocation

Historic Weather in Hamburg — Graph

°F

Hamburg temperature yesterday

Maximum temperature yesterday: 57 °F (at 3:20 PM)
Minimum temperature yesterday: 48 °F (at 3:20 AM)
Average temperature yesterday: 53 °F

Past Weeks' High & Low Weather Summary

 TemperatureHumidityPressure
High72 °F (Oct 19, 1:50 PM)100% (Oct 10, 9:20 PM)30.18 "Hg (Oct 10, 9:20 PM)
Low48 °F (Oct 11, 5:20 AM)59% (Oct 14, 3:50 PM)29.36 "Hg (Oct 21, 6:20 PM)
Average56 °F87%29.84 "Hg
* Reported Oct 9 1:20 PM — Oct 24 1:50 PM, Hamburg, Weather by CustomWeather, © 2014

Note: Actual official high and low records may vary slightly from our data, if they occured in-between our weather recording intervals... More about our weather records

Advertising

Hamburg weather history for previous 24 hours

 ConditionsComfort  
Time TempWeatherWind HumidityBarometerVisibility
1:50 PM
Oct 24
57 °FPartly sunny.13 mph72%30.09 "HgN/A
1:20 PM55 °FPartly sunny.14 mph77%30.12 "HgN/A
12:50 PM55 °FPartly sunny.14 mph77%30.12 "HgN/A
12:20 PM55 °FPartly sunny.13 mph77%30.15 "HgN/A
11:50 AM55 °FOvercast.13 mph77%30.15 "HgN/A
11:20 AM55 °FOvercast.12 mph77%30.15 "HgN/A
10:50 AM54 °FOvercast.13 mph82%30.15 "HgN/A
10:20 AM54 °FOvercast.12 mph82%30.15 "HgN/A
9:50 AM54 °FOvercast.10 mph82%30.15 "HgN/A
9:20 AM54 °FPartly sunny.12 mph82%30.15 "HgN/A
8:50 AM54 °FPassing clouds.10 mph82%30.15 "HgN/A
8:20 AM54 °FPassing clouds.9 mph82%30.12 "HgN/A
7:50 AM54 °FPassing clouds.9 mph82%30.12 "HgN/A
7:20 AM54 °FPassing clouds.10 mph82%30.12 "HgN/A
6:50 AM54 °FPassing clouds.8 mph88%30.12 "HgN/A
6:20 AM54 °FPassing clouds.9 mph82%30.12 "HgN/A
5:50 AM52 °FPassing clouds.8 mph88%30.12 "HgN/A
5:20 AM52 °FPassing clouds.9 mph88%30.12 "HgN/A
4:50 AM52 °FPassing clouds.9 mph88%30.12 "HgN/A
4:20 AM52 °FPassing clouds.8 mph88%30.12 "HgN/A
3:50 AM52 °FPassing clouds.8 mph94%30.12 "HgN/A
3:20 AM52 °FPassing clouds.8 mph94%30.15 "HgN/A
2:50 AM54 °FPassing clouds.8 mph82%30.15 "HgN/A
2:20 AM54 °FPassing clouds.7 mph88%30.15 "HgN/A
1:50 AM54 °FPassing clouds.9 mph82%30.15 "HgN/A
1:20 AM54 °FPassing clouds.10 mph88%30.15 "HgN/A
12:50 AM54 °FPassing clouds.13 mph88%30.15 "HgN/A
12:20 AM54 °FCool.12 mph88%30.15 "HgN/A
11:50 PM
Oct 23
54 °FPassing clouds.10 mph88%30.15 "HgN/A
11:20 PM54 °FPassing clouds.10 mph88%30.15 "HgN/A
10:50 PM54 °FPassing clouds.10 mph88%30.18 "HgN/A
10:20 PM54 °FPassing clouds.12 mph88%30.18 "HgN/A
9:50 PM54 °FPassing clouds.10 mph88%30.15 "HgN/A
9:20 PM54 °FPassing clouds.9 mph88%30.15 "HgN/A
8:50 PM54 °FPassing clouds.9 mph88%30.15 "HgN/A
8:20 PM54 °FPassing clouds.8 mph88%30.15 "HgN/A
7:50 PM54 °FPassing clouds.7 mph88%30.15 "HgN/A
7:20 PM54 °FPassing clouds.10 mph82%30.15 "HgN/A
6:50 PM55 °FPartly sunny.8 mph77%30.15 "HgN/A
6:20 PM54 °FPartly sunny.9 mph82%30.15 "HgN/A
5:50 PM54 °FSunny.8 mph82%30.15 "Hg10 mi
5:20 PM55 °FBroken clouds.7 mph77%30.15 "HgN/A
4:50 PM55 °FBroken clouds.8 mph72%30.15 "HgN/A
4:20 PM55 °FBroken clouds.8 mph77%30.15 "HgN/A
3:50 PM55 °FPartly sunny.8 mph77%30.15 "HgN/A
3:20 PM57 °FPartly sunny.7 mph72%30.15 "HgN/A
2:50 PM55 °FPartly sunny.10 mph72%30.15 "HgN/A
2:20 PM55 °FPartly sunny.10 mph72%30.15 "HgN/A
Weather by CustomWeather, © 2014

See weather overviewHow to use our weather pages